Home   Weather   Ribeirão Prêto   Past weeks

Flag for Brazil Past Weather in Ribeirão Prêto, São Paulo, Brazil — Yesterday and Last 2 Weeks

Now
79 °F

More clouds than sun.


Feels Like: 81 °F
Forecast: 61 / 80 °F
Wind: 6 mph from South

Location: Leite Lopes / Ribeir

Current Time: Apr 28, 2017 at 3:10:05 pm

Latest Report: Apr 28, 2017 at 2:00 pm


Visibility: N/A

Pressure: 30.07 "Hg (28.24 "Hg at 549m altitude)

Humidity: 65%

Dew Point: 66 °F

Location of Ribeirão PrêtoLocation

Past Weather in Ribeirão Prêto — Graph

°F

Ribeirão Prêto Temperature Yesterday

Maximum temperature yesterday: 75 °F (at 12:00 pm)
Minimum temperature yesterday: 66 °F (at 12:00 am)
Average temperature yesterday: 70 °F

High & Low Weather Summary for the Past Weeks

 TemperatureHumidityPressure
High90 °F (Apr 14, 3:00 pm)100% (Apr 21, 4:00 am)30.15 "Hg (Apr 21, 4:00 am)
Low41 °F (Apr 26, 1:35 pm)36% (Apr 15, 5:00 pm)29.86 "Hg (Apr 20, 4:00 pm)
Average74 °F74%30.00 "Hg
* Reported Apr 13 2:00 pm — Apr 28 2:00 pm, Ribeirão Prêto, Weather by CustomWeather, © 2017

Note: Actual official high and low records may vary slightly from our data, if they occured in-between our weather recording intervals... More about our weather records

Advertising

Ribeirão Prêto Weather History for the Previous 24 Hours

Scroll right to see more
 ConditionsComfort  
Time TempWeatherWind HumidityBarometerVisibility
2:00 pm
Fri, Apr 28
79 °FMore clouds than sun.6 mph65%30.07 "HgN/A
12:00 pm75 °FPartly sunny.No wind69%30.12 "HgN/A
11:00 am72 °FBroken clouds.7 mph78%30.15 "Hg6 mi
10:00 am68 °FOvercast.7 mph83%30.15 "Hg4 mi
9:00 am68 °FPartly sunny.8 mph83%30.15 "Hg4 mi
8:15 am66 °FFog.8 mph88%30.12 "Hg3 mi
8:00 am66 °FFog.7 mph94%30.12 "Hg3 mi
7:00 am64 °FFog.6 mph94%30.09 "Hg3 mi
6:00 am66 °FFog.6 mph94%30.07 "Hg3 mi
5:00 am64 °FFog.7 mph100%30.07 "Hg3 mi
4:00 am64 °FPassing clouds.7 mph94%30.04 "HgN/A
3:00 am66 °FClear.3 mph94%30.04 "Hg10 mi
2:00 am66 °FClear.No wind100%30.07 "Hg10 mi
1:00 am68 °FClear.5 mph94%30.07 "Hg10 mi
12:00 am70 °FPassing clouds.2 mph88%30.07 "HgN/A
11:00 pm
Thu, Apr 27
70 °FPassing clouds.2 mph94%30.07 "HgN/A
8:00 pm70 °FPassing clouds.No wind88%30.07 "HgN/A
7:00 pm70 °FPassing clouds.No wind88%30.04 "HgN/A
6:00 pm72 °FOvercast.6 mph83%30.04 "HgN/A
5:00 pm73 °FMore clouds than sun.8 mph78%30.04 "HgN/A
4:00 pm75 °FOvercast.5 mph69%30.01 "HgN/A
3:00 pm75 °FOvercast.6 mph69%30.04 "HgN/A
Weather by CustomWeather, © 2017

See weather overviewHow to use our weather pages